Regional Weather Roundup
Issued by NWS Northern Indiana

Home | Current Version | Previous Version | Graphics & Text | Print | Product List | Glossary On
Versions: 1 2 3 4 5 6 7 8 9 10 11 12 13 14 15 16 17 18 19 20 21 22 23 24 25 26 27 28 29 30 31 32 33 34 35 36 37 38 39 40 41 42 43 44 45 46 47 48 49 50
000
ASUS43 KIWX 011610
RWRIWX

KIWX WEATHER ROUNDUP
NATIONAL WEATHER SERVICE NORTHERN INDIANA
1200 PM EDT WED JUL 01 2015

NOTE: "FAIR" INDICATES FEW OR NO CLOUDS BELOW 12,000 FEET WITH NO
SIGNIFICANT WEATHER AND/OR OBSTRUCTIONS TO VISIBILITY.

* THESE STATIONS ARE NOT UNDER NWS QUALITY CONTROL. THEY ALSO MAY NOT
  REPORT WEATHER SUCH AS PRECIPITATION OR FOG.

INZ001>027-011700-
NORTHERN INDIANA

CITY           SKY/WX    TMP DP  RH WIND       PRES   REMARKS
GARY*          MOSUNNY   63  55  77 N9        29.98S
VALPARAISO     MOSUNNY   66  55  67 N9        29.97F
MICHIGAN CITY* CLOUDY    61  57  88 N7        29.99R
LAPORTE*       MOSUNNY   66  56  68 N8        29.98S
KNOX*          MOSUNNY   64  55  72 N9        29.96S
SOUTH BEND     CLOUDY    66  54  65 NW10      29.98R
ELKHART*       MOSUNNY   66  54  63 NW8       29.97R
GOSHEN         MOSUNNY   66  56  70 W8        29.96R
MONTICELLO*    SUNNY     68  61  78 NE7       29.96R
LOGANSPORT*    PTSUNNY   68  54  60 NW3       29.97R
ROCHESTER*     SUNNY     70  59  68 N5        29.97R
WARSAW*          N/A     68  57  68 N5        29.96S
ANGOLA*        MOSUNNY   66  57  72 W6        29.95R
FORT WAYNE     MOSUNNY   70  58  65 N8        29.95S
HUNTINGTON*    SUNNY     68  59  71 N6        29.96R
PERU/GRISSOM   MOSUNNY   69  60  74 NE5       29.95R
MARION*        SUNNY     69  57  66 N5        29.96S

$$
INZ028>050-011700-
CENTRAL INDIANA

CITY           SKY/WX    TMP DP  RH WIND       PRES   REMARKS
LAFAYETTE      MOSUNNY   69  61  75 VRB3      29.95R
KOKOMO*        MOSUNNY   72  59  64 N3        29.95S
MUNCIE*        SUNNY     72  60  66 VRB3      29.96R
INDIANAPOLIS   PTSUNNY   72  59  63 VRB3      29.94R

$$
MIZ043>046-050>051-056>058-064>065-071>073-077>080-011700-
SOUTHWEST LOWER MICHIGAN

CITY           SKY/WX    TMP DP  RH WIND       PRES   REMARKS
BATTLE CREEK   PTSUNNY   63  54  72 NW8       29.96R
BENTON HARBOR  CLOUDY    60  52  74 NW9       29.99R
COLDWATER*     PTSUNNY   64  55  72 W7        29.95R
HILLSDALE*     CLOUDY    66  59  79 W9        29.94R
HOLLAND        MOSUNNY   62  48  60 NW12      29.97S
GRAND RAPIDS   PTSUNNY   62  51  67 NW8       29.95R
KALAMAZOO      PTSUNNY   67  53  61 NW9       29.96R
STURGIS*       MOSUNNY   64  55  72 NW6       29.95R
THREE RIVERS*  FAIR      67  54  63 NW6       29.95S

$$
OHZ001>008-015>018-024>025-011700-
NORTHWEST OHIO

CITY           SKY/WX    TMP DP  RH WIND       PRES   REMARKS
DEFIANCE       MOSUNNY   67  56  67 W7        29.94R
FINDLAY        CLOUDY    66  57  72 W10       29.93R
TOLEDO EXPRESS CLOUDY    67  58  72 W10       29.91R
TOLEDO METCALF CLOUDY    70  58  65 W10       29.91R
LIMA           SUNNY     68  58  70 NW8       29.95R

$$
AND FOR LAKE MICHIGAN COASTAL AND OPEN LAKE BUOY OBSERVATIONS

STATION/POSITION TEMP    WIND        PRES    VSBY  WAVE
                 AIR SEA DIR/SP/G                  HT/PER
                 (F)     (DEG/KT/KT) (MB)    (MI)  (FT/S)
CALUMET HARBOR    58      20/  6/  9   N/A
MICHIGAN CITY     59     340/  7/  8   N/A
BURNS HARBOR      58      10/  8/  9 1015.9R
SAINT JOSEPH      60     330/  7/ 11   N/A
4 MI NW BRIDGMAN  58 63                N/A           4/ 6
MICHIGAN CITY     57 65   30/  8/ 12   N/A           3/ 6

$$
&&



USA.gov is the U.S. government's official web portal to all federal, state and local government web resources and services.